Location: Dailly
(46.2000°N, 7.0333°E)
Time: 10:27:01
(UTC+00:00)

Daily predictions for brighter satellites

Satellite Brightness Start Highest point End
(mag) Time Altitude Azimuth Time Altitude Azimuth Time Altitude Azimuth
Nadezhda 4 Rocket 4.1 16:11:58 10° N 16:18:16 62° ENE 16:24:31 10° SSE
CZ-4B R/B 4.3 16:16:08 10° ESE 16:20:05 21° ENE 16:24:00 10° NNE
ADEOS 4.0 16:15:09 10° S 16:20:21 69° WSW 16:25:36 10° NNW
Cosmos 540 Rocket 4.5 16:18:57 10° SSE 16:23:09 26° E 16:27:22 10° NE
CZ-2C R/B 4.1 16:20:29 10° NE 16:23:31 15° E 16:26:32 10° SE
CZ-4C R/B 3.6 16:17:27 10° NNW 16:23:34 33° NNE 16:30:41 10° E
Cosmos 1500 Rocket 3.8 16:19:22 10° N 16:23:40 46° ENE 16:27:54 10° SSE
CZ-4B R/B 2.8 16:22:50 10° SSE 16:26:55 76° ENE 16:30:48 10° N
SMAP 3.3 16:24:10 10° SE 16:28:39 49° ENE 16:33:09 10° N
USA 305 4.0 16:25:15 10° WNW 16:29:03 31° N 16:32:49 10° NE
CZ-2C R/B 2.9 16:25:48 10° SSE 16:30:45 89° ENE 16:35:33 10° NNW
Cosmos 468 Rocket 4.2 16:27:43 10° S 16:32:41 53° ESE 16:37:45 10° NNE
Cosmos 1092 Rocket 4.3 16:26:50 10° N 16:32:59 48° ENE 16:39:04 10° SSE
Cosmos 1898 Rocket 3.6 16:29:24 10° NNW 16:34:35 55° ENE 16:39:41 10° SE
Cosmos 44 3.8 16:30:19 10° NW 16:35:02 60° WSW 16:39:27 10° SSE
Cosmos 1805 Rocket 4.1 16:31:10 10° N 16:35:12 36° ENE 16:39:11 10° SE
Sich 1 3.8 16:32:03 10° NNE 16:35:49 29° ENE 16:39:35 10° SE
Cosmos 1933 3.9 16:32:24 10° SSE 16:36:08 36° E 16:39:51 10° NNE
Cosmos 1842 Rocket 3.7 16:34:18 10° SSW 16:38:45 80° W 16:43:16 10° N
Cosmos 2221 2.9 16:34:37 10° SSW 16:38:52 68° W 16:43:10 10° N
PSLV R/B 4.2 16:38:37 10° SE 16:42:00 35° ENE 16:45:26 10° N
SL-08 R/B 3.9 16:41:01 10° N 16:45:40 58° WNW 16:50:13 10° SSW
Cosmos 2084 3.5 16:46:53 10° NW 16:51:13 85° SW 16:55:41 10° SE
Cosmos 1656 4.3 16:46:16 10° NNW 16:51:44 61° WSW 16:57:14 10° S
deb Chang Zheng 4 4.4 16:48:11 10° ESE 16:51:49 27° ENE 16:55:28 10° N
AQUARIUS 4.1 16:47:46 10° SSE 16:52:13 71° ENE 16:56:43 10° N
FengYun 1-2 T 4.4 16:48:03 10° SSE 16:53:39 81° WSW 16:59:14 10° NNW
H-2A R/B 2.2 16:49:42 10° SE 16:54:38 47° ENE 16:59:28 10° N
Cosmos 2034 Rocket 4.1 16:49:23 10° S 16:55:33 81° W 17:01:45 10° N
NOSS 2-2 (C) 4.5 16:52:46 10° NNW 16:57:41 51° NE 17:04:29 10° ESE
ERBS 4.3 16:55:27 10° WNW 16:57:46 18° NNW 16:59:46 12° NNE
Cosmos 1666 3.8 16:55:52 10° NNE 16:58:49 22° ENE 17:01:46 10° SE
Cosmos 2322 Rocket 3.8 16:56:11 10° N 16:59:13 14° NE 17:00:04 14° NE
USA 306 4.1 16:57:36 10° WNW 17:01:19 28° N 17:03:44 17° NE
Cosmos 2279 Rocket 4.5 16:56:14 10° SSE 17:01:47 36° E 17:07:21 10° NNE
Cosmos 1697 Rocket 2.6 16:57:29 10° NNW 17:03:09 85° ENE 17:08:46 10° SSE
USA 267 3.5 16:58:13 13° NE 17:04:09 69° NNW 17:10:38 10° WSW
Cosmos 2369 3.7 17:00:47 10° NNW 17:06:31 63° ENE 17:12:10 10° SE
Cosmos 1980 Rocket 2.3 17:01:27 10° NNW 17:06:59 51° ENE 17:12:27 10° SE
Cosmos 1763 Rocket 3.6 17:02:28 10° SSW 17:07:32 76° WNW 17:12:39 10° NNE
COSMO-SKYMED 1 3.3 17:05:08 15° NE 17:08:14 33° E 17:12:09 10° SSE
Cosmos 1939 Rocket 3.6 17:04:20 10° S 17:08:23 59° W 17:12:27 10° NNW
MOS 1-B Rocket 4.2 17:02:47 10° NNE 17:08:32 53° E 17:15:01 10° S
SL-24 R/B - RUBIN 2 3.7 17:07:21 10° NNW 17:11:50 51° NE 17:15:48 11° SE
Meteor 1-25 Rocket 4.3 17:06:22 10° NNW 17:11:57 79° W 17:17:33 10° S
Meteor 2-21 4.3 17:06:46 10° N 17:12:52 71° E 17:18:53 10° SSE
Cosmos 841 Rocket 3.6 17:07:58 10° S 17:13:00 55° ESE 17:17:15 14° NNE
Cosmos 1812 3.2 17:11:16 10° SSE 17:14:48 36° E 17:16:31 24° NE
Cosmos 1937 Rocket 3.5 17:10:49 10° NNW 17:16:11 88° ENE 17:21:29 10° SSE
SL-16 R/B 3.3 17:12:22 10° N 17:16:41 22° NE 17:17:26 21° NE
Cosmos 1634 Rocket 4.0 17:10:55 10° S 17:17:11 73° E 17:23:32 10° NNE
Cosmos 1633 Rocket 3.5 17:15:04 10° N 17:19:10 37° ENE 17:23:14 10° SE
USA 307 4.2 17:15:59 10° WNW 17:19:43 28° N 17:21:20 22° NE
YAOGAN 1 4.3 17:22:20 16° NNE 17:22:20 16° NNE 17:23:37 10° NNE
Cosmos 2082 Rocket 2.3 17:15:01 10° S 17:20:32 53° ESE 17:24:27 19° NE
USA 229 DEB 4.3 17:13:41 10° NW 17:21:01 71° WSW 17:28:47 10° SSE
USA 229 4.2 17:13:47 10° NW 17:21:06 71° WSW 17:28:52 10° SSE
Cosmos 2026 Rocket 3.9 17:18:33 10° N 17:24:44 88° W 17:30:48 10° S
ATLAS 2AS CENTAUR R/B 4.5 17:23:53 10° NW 17:29:22 21° N 17:33:27 13° NNE
Okean O Rocket 1.7 17:25:09 10° SSE 17:29:28 54° ENE 17:33:51 10° N
USA 276 4.2 17:27:17 10° W 17:29:56 25° SW 17:32:34 10° SSE
Cosmos 1602 4.5 17:26:42 10° NNW 17:30:28 53° W 17:34:14 10° S
Cosmos 372 Rocket 3.9 17:25:14 10° NNW 17:30:30 77° ENE 17:35:45 10° SSE
Cosmos 2278 3.7 17:25:20 10° NNW 17:30:58 56° ENE 17:36:33 10° SE
ATLAS CENTAUR R/B 4.1 17:32:59 10° NNW 17:33:49 10° NNW 17:34:41 10° N
Cosmos 1151 Rocket 3.0 17:31:26 10° S 17:35:40 60° E 17:38:08 24° NNE
Cosmos 1782 3.0 17:31:45 10° SSW 17:35:44 72° W 17:39:44 10° N
Cosmos 1655 Rocket 4.3 17:31:09 10° N 17:37:11 41° ENE 17:43:09 10° SE
USA 234 3.8 17:31:32 10° SE 17:37:57 57° SW 17:44:23 10° WNW
COSMOS 2406 3.4 17:32:29 10° SSW 17:38:13 72° WNW 17:43:04 15° NNE
COSMOS 2455 2.8 17:34:01 10° SSW 17:40:03 83° ESE 17:43:55 24° NE
USA 308 4.0 17:38:36 10° WNW 17:42:19 28° N 17:42:51 27° NNE
ARGOS 3.0 17:37:46 10° SSE 17:43:10 75° ENE 17:48:35 10° N
Cosmos 1666 Rocket 3.4 17:39:38 10° N 17:44:07 83° E 17:48:32 10° S
Cosmos 1833 Rocket 3.4 17:39:24 10° SW 17:44:51 51° WNW 17:49:48 13° NNE
Cosmos 2180 Rocket 4.5 17:41:49 10° S 17:48:03 62° E 17:54:15 10° NNE
Meteor 2-6 Rocket 4.2 17:44:08 10° S 17:49:48 60° E 17:53:25 22° NNE
Cosmos 1328 Rocket 3.5 17:45:38 10° S 17:50:00 61° E 17:50:53 49° NE
ISS -3.7 17:47:00 10° WNW 17:50:10 74° NNW 17:50:10 74° NNW
NOSS 2-2 (D) 4.5 17:45:44 10° NW 17:51:01 80° SW 17:58:28 10° SSE
CZ-4 R/B 4.3 17:49:51 10° SSE 17:53:59 89° W 17:58:08 10° NNW
SKYMED 2 3.6 17:53:45 23° N 17:56:25 79° WNW 18:00:45 10° SSW
Lacrosse 5 rocket 2.3 17:53:44 10° NW 17:56:30 32° N 17:56:30 32° N
CZ-4B R/B 3.5 17:54:47 10° S 18:00:10 65° WSW 18:05:31 10° NNW
Cosmos 1570 Rocket 3.8 17:55:10 10° SSW 18:00:24 76° ESE 18:02:05 44° NNE
Landsat 5 3.2 18:00:26 73° NE 18:00:48 83° ESE 18:04:48 10° SSW
Cosmos 2298 Rocket 4.3 17:55:42 10° NNW 18:00:27 47° NE 18:00:27 47° NE
Meteor 2-8 Rocket 4.3 17:55:04 10° S 18:01:11 75° E 18:07:21 10° NNE
ATLAS CENTAUR R/B 3.0 17:53:43 10° WSW 18:01:59 51° NW 18:03:21 37° NNE
SL-08 RB Rocket 3.6 17:58:21 10° SSE 18:03:00 81° ENE 18:07:38 10° N
GEOS 3 Rocket 3.5 18:02:08 50° ESE 18:03:18 65° NE 18:08:28 10° NW
CZ-2C R/B 2.7 17:59:22 11° N 18:04:25 74° WNW 18:09:33 10° SSW
Cosmos 540 Rocket 4.5 17:59:39 10° SW 18:04:30 43° WNW 18:08:24 15° N
Meteor 1-10 Rocket 4.2 18:02:10 10° S 18:07:52 62° E 18:09:02 51° NE
Cosmos 1814 Rocket 4.0 18:02:54 10° SSW 18:08:08 82° WNW 18:10:08 39° NNE
Meteor 1-11 Rocket 3.9 18:03:06 10° N 18:07:51 50° NE 18:07:51 50° NE
Cosmos 1818 3.5 18:03:17 10° NNW 18:08:44 62° NE 18:09:02 61° ENE
USA 305 4.2 18:05:55 10° NW 18:08:56 29° N 18:08:56 29° N
Cosmos 44 Rocket 3.5 18:07:36 10° NNW 18:11:47 54° N 18:11:47 54° N
CZ-4C R/B 3.0 18:05:41 10° NW 18:12:58 88° SW 18:20:10 15° SE
Feng Yun 1-1 Rocket 4.3 18:13:02 10° SSE 18:18:57 85° WSW 18:24:53 10° NNW
Cosmos 1900 4.4 18:14:08 10° SSW 18:18:19 62° S 18:18:19 62° S
Cosmos 2360 Rocket 3.9 18:20:07 10° N 18:22:13 20° N 18:22:13 20° N
Cosmos 2208 Rocket 4.2 18:27:46 10° SSW 18:33:09 73° WNW 18:33:46 66° NNW
H-2A R/B 4.2 18:30:04 10° SSW 18:34:16 25° W 18:38:24 10° NW
Cosmos 2322 Rocket 3.3 18:38:50 10° NNW 18:41:55 32° N 18:41:55 32° N
USA 267 4.1 18:45:34 36° N 18:46:35 38° NNW 18:52:29 10° WNW
Cosmos 1980 Rocket 4.1 18:45:59 10° NW 18:50:41 27° WSW 18:55:20 10° SSW
Cosmos 2266 Rocket 4.4 18:45:11 10° NNW 18:51:29 64° W 18:57:47 10° S
SL-16 R/B 3.2 18:55:46 10° NNW 18:59:20 40° NW 18:59:20 40° NW
Cosmos 2082 Rocket 3.8 19:00:01 10° WSW 19:04:54 29° NW 19:06:21 26° NNW
Okean O Rocket 4.4 19:03:15 10° SW 19:06:09 17° W 19:09:04 10° NW
ATLAS 2AS CENTAUR R/B 4.4 19:17:01 10° NNW 19:20:53 22° N 19:20:53 22° N
